STARLINK-37022, 68101

Orbit data source: Space-Track

STARLINK-37022, 68101 is a payload satellite owned by SpaceX/Seattle (US) in SSO that was launched on Sun, 08 Mar 2026 UTC via an FALCON 9 launch vehicle from the Air Force Western Test Range (AFWTR). Payload-class satellites include a variety of spacecraft equipped with specific instruments for various scientific and technological missions. These include communications satellites like Starlink; space stations such as the ISS; scientific satellites like the Hubble; Earth observation satellites from companies like Planet Labs, Umbra, and HawkEye 360; GPS; miniature CubeSats for education and research; and military/defense satellites.

Loading next visibility...
Identifier
68101, 2026-044A
Orbit
SSO
Country
Flag of USUS
Related business
Manufacturer
SpaceX/Seattle
Mission
Operational spacecraft
Bus & Motor
STARLINK V2MO, Unknown motor
Mass
575 kg wet, ~530 kg dry
Launch date (UTC)
2026-03-08 (2 months ago)
Launch vehicle
FALCON 9
Launch site
Air Force Western Test Range (AFWTR)
Object type
Payload
Rocket body
Debris
Shape & HBR
Unknown shape, 17.7 m
Radar Cross Section
RCS unknown

Expand to show TLE details & history
Last TLE update: 9 hours ago

TLE from 9 hours ago
0 STARLINK-37022
1 68101U 26044A   26119.88019471  .00026801  00000-0  82925-3 0  9995
2 68101  97.2852  80.7956 0002067 100.1203 260.0273 15.33455526  9422
Epoch: 2026-04-29T21:07Z
TLE epoch observation values (Epoch: 2026-04-29T21:07:28.822Z)
Latitude
-0.00005°
Longitude
-93.90929°
Altitude
468.869 km
Speed
7.632 km/s
True Right ascension
05h 23m 10s
True Declination
0° 00' 00"
Sunlit
Object was in daylight at epoch
Visualization orbit readout
Latitude
Unknown
Longitude
Unknown
Altitude
Unknown
Speed
Unknown
Apparent Right ascension
Unknown
Apparent Declination
Unknown
Sunlit
N/A
Visualization observer readout
Local Sidereal Time
13:39:11
Azimuth
Unknown
Elevation
Unknown
Doppler factor
Unknown
Orbital elements
Apogee altitude
463.869 km
Perigee altitude
461.041 km
Semi-major axis
6,840.592 km
Eccentricity
0.00021
Inclination
97.2852°
RAAN
80.7956°
Arg. of periapsis
100.1203°
True anomaly
260.00397°
Mean anomaly
260.0273°
Eccentric anomaly
260.01564°
Mean motion
3.83621 °/min
Orbital period
93.84 mins
BSTAR
0.00082925
Loading maneuver chart data...
Computing Atmospheric mass density...
Loading historical data...
Loading historical data...
Loading historical data...
Loading historical data...
Loading historical data...
Loading historical data...
Loading historical data...

Documentation

Showing up to 5 results
|